This is the latest recevied weather packets stored in our database for station/object IZ1UQG-N2. If no packets are shown the sender has not sent any weather packets the latest 10 day(s).
| Time | Temp. | Humidity | Pressure | Rain* | Wind** | Luminosity | Snow |
|---|---|---|---|---|---|---|---|
| 1777642528 | 18.89° C | 37% | 1024 hPa | 0 mm | - | 710 W/m² | - |
| 1777642508 | 18.89° C | 37% | 1024 hPa | 0 mm | - | 710 W/m² | - |
| 1777642468 | 18.89° C | 37% | 1023.9 hPa | 0 mm | - | 712 W/m² | - |
| 1777642407 | 18.89° C | 38% | 1024 hPa | 0 mm | - | 712 W/m² | - |
| 1777642346 | 18.89° C | 38% | 1023.9 hPa | 0 mm | - | 715 W/m² | - |
| 1777642328 | 18.89° C | 38% | 1023.9 hPa | 0 mm | - | 715 W/m² | - |
| 1777642288 | 18.89° C | 38% | 1024 hPa | 0 mm | - | 719 W/m² | - |
| 1777642228 | 18.89° C | 38% | 1023.9 hPa | 0 mm | - | 719 W/m² | - |
| 1777642168 | 18.89° C | 37% | 1023.9 hPa | 0 mm | - | 721 W/m² | - |
| 1777642148 | 18.89° C | 37% | 1024 hPa | 0 mm | - | 723 W/m² | - |
| 1777642107 | 18.89° C | 37% | 1024 hPa | 0 mm | - | 723 W/m² | - |
| 1777642060 | 18.89° C | 38% | 1024 hPa | 0 mm | - | 730 W/m² | - |
| 1777642047 | 18.89° C | 37% | 1024 hPa | 0 mm | - | 724 W/m² | - |
| 1777641987 | 19.44° C | 37% | 1023.9 hPa | 0 mm | - | 724 W/m² | - |
| 1777641968 | 19.44° C | 37% | 1023.9 hPa | 0 mm | - | 724 W/m² | - |
| 1777641928 | 19.44° C | 37% | 1024 hPa | 0 mm | - | 724 W/m² | - |
| 1777641868 | 19.44° C | 37% | 1024.1 hPa | 0 mm | - | 728 W/m² | - |
| 1777641808 | 18.89° C | 38% | 1024 hPa | 0 mm | - | 730 W/m² | - |
| 1777641788 | 18.89° C | 38% | 1024 hPa | 0 mm | - | 730 W/m² | - |
| 1777641759 | 18.89° C | 37% | 1024.2 hPa | 0 mm | - | 737 W/m² | - |
| 1777641747 | 18.89° C | 38% | 1024.1 hPa | 0 mm | - | 731 W/m² | - |
| 1777641687 | 18.89° C | 37% | 1024 hPa | 0 mm | - | 733 W/m² | - |
| 1777641627 | 18.89° C | 36% | 1024.1 hPa | 0 mm | - | 733 W/m² | - |
| 1777641606 | 18.89° C | 36% | 1024.1 hPa | 0 mm | - | 733 W/m² | - |
| 1777641566 | 18.89° C | 37% | 1024.1 hPa | 0 mm | - | 737 W/m² | - |
* Rain latest hour (hover to see other rain measurements)
** Current wind speed in m/s (hover to see current wind gust speed)